Regional Weather Roundup
Issued by NWS

Home | Current Version | Previous Version | Text Only | Print | Product List | Glossary Off
Versions: 1 2 3 4 5 6 7 8 9 10 11 12 13 14 15 16 17 18 19 20 21 22 23 24 25 26 27 28 29 30 31 32 33 34 35 36 37 38 39 40 41 42 43 44 45 46 47 48 49 50

000
ASUS43 KLSX 281059
RWRMO

WEATHER SUMMARY FOR MISSOURI
NATIONAL WEATHER SERVICE SPRINGFIELD MO
600 AM CDT THU MAY 28 2015

NOTE: "FAIR" INDICATES FEW OR NO CLOUDS BELOW 12,000 FEET WITH NO
       SIGNIFICANT WEATHER AND/OR OBSTRUCTIONS TO VISIBILITY.
       CURRENT SKY AND/OR WEATHER CONDITIONS ARE NOT AVAILABLE FOR
       CHILLICOTHE AND FARMINGTON.

MOZ001>031-035>038-043-044-053-054-281200-
...NORTHERN AND WESTERN MISSOURI...

CITY           SKY/WX    TMP DP  RH WIND       PRES   REMARKS
KANSAS CTY INT CLOUDY    65  56  72 SE9       30.08R
KANSAS C DTWN  CLOUDY    70  55  59 E7        30.07R
LEE`S SUMMIT   CLOUDY    67  55  65 SE6       30.09R
ST JOSEPH      CLOUDY    66  55  67 SE5       30.08R

$$
MOZ066>068-077>081-088>096-101>105-281200-
...SOUTHWEST MISSOURI...

CITY           SKY/WX    TMP DP  RH WIND       PRES   REMARKS
SPRINGFIELD    FAIR      67  64  90 SE8       30.10R
JOPLIN         CLOUDY    65  62  90 SE6       30.08R

$$
MOZ032>034-039>042-045>050-055>058-069>072-281200-
...CENTRAL MISSOURI...

CITY           SKY/WX    TMP DP  RH WIND       PRES   REMARKS
COLUMBIA       CLEAR     63  58  83 E8        30.12R
JEFFERSON CITY CLEAR     62  58  86 SE6       30.11R
ROLLA          CLEAR     61  58  90 E9        30.12R
SEDALIA        MOCLDY    64  58  80 SE7       30.11R
OSAGE BEACH    CLEAR     61  57  88 E5        30.11S

$$
MOZ051-052-059>065-281200-
...EAST CENTRAL MISSOURI...

CITY           SKY/WX    TMP DP  RH WIND       PRES   REMARKS
ST LOUIS INTL  MOCLDY    65  57  75 E5        30.15R
SPIRIT OF STL  CLEAR     58  58 100 CALM      30.14R
ST CHARLES     CLEAR     59  58  96 CALM      30.14R

$$
MOZ072>076-082>087-097>100-106>115-281200-
...SOUTH CENTRAL AND SOUTHEAST MISSOURI...

CITY           SKY/WX    TMP DP  RH WIND       PRES   REMARKS
CAPE GIRARDEAU PTCLDY    67  66  97 CALM      30.14R
FARMINGTON     MOCLDY    61  61 100 CALM      30.18R
POPLAR BLUFF   CLOUDY    67  66  97 SE5       30.12R FOG
WEST PLAINS    FOG       67  66  97 S3        30.15R VSB 1/2

$$



USA.gov is the U.S. government's official web portal to all federal, state and local government web resources and services.